User: anonymous   Login
Location: PACMO
(41.3967°N, 90.3760°W)
Time: 07:21:37
(UTC-05:00)
Language:

NOAA 19 - Orbit

View from above orbital plane
View from above orbital plane
View from above satellite
View from above satellite

Ground track
Ground track

The orbit data is extracted from the following two-line orbital elements,

1 33591U 09005A   15213.51874062  .00000148  00000-0  10534-3 0  9999
2 33591 098.9927 163.5135 0014933 045.3649 314.8737 14.11961720333882
Epoch (UTC): 01 August 2015 12:26:59
Eccentricity: 0.0014933
inclination: 98.9927°
perigee height: 842 km
apogee height: 863 km
right ascension of ascending node: 163.5135°
argument of perigee: 45.3649°
revolutions per day: 14.11961720
mean anomaly at epoch: 314.8737°
orbit number at epoch: 33388

The dashed part of the orbit path shows where the satellite is in the earth's shadow,  

DLR